Wind_Speed
22 23 11 11 12 9 8 5 4 8 8 3 7 5 8 9 13 14 10 10 12 12 15 11 6 2 1 5 4 5 8 7 7 9 11 9 8 9 9 13 14 16 9 9
21 20 15 17 17 13 11 8 3 3 11 7 11 4 4 9 10 10 13 12 8 7 8 12 12 8 5 3 8 9 11 12 8 8 10 10 7 7 10 16 16 20 13 13
15 13 20 21 22 20 16 10 7 5 7 4 11 8 6 6 7 6 4 12 10 4 4 6 8 7 5 4 3 6 7 7 7 8 10 11 8 4 3 7 9 9 13 10
14 16 19 24 26 23 23 16 13 10 9 5 4 5 7 11 5 6 6 7 8 4 3 4 3 4 3 6 8 8 8 9 10 12 13 11 9 8 7 6 4 5 12 14
14 16 17 24 23 25 23 21 19 20 17 14 11 11 6 12 6 2 8 7 2 3 2 5 4 5 2 3 8 8 9 12 13 12 12 12 10 9 8 10 10 10 11 15
15 14 17 22 25 27 27 24 23 24 25 23 15 18 9 6 7 6 13 10 3 4 4 7 3 6 6 5 5 9 11 15 13 10 7 7 7 6 5 7 7 10 13 14
10 14 17 20 26 30 31 28 24 24 27 27 24 23 11 13 15 12 13 8 1 7 9 6 7 5 7 7 6 7 11 13 11 8 5 5 5 6 5 6 6 7 9 10
6 15 18 21 23 29 36 37 31 30 26 22 21 23 21 23 16 15 16 14 6 3 6 8 11 8 7 7 8 7 9 11 10 7 3 3 3 5 6 6 5 5 5 9
7 9 13 20 21 24 28 28 28 25 19 22 19 20 19 21 19 18 16 15 13 7 11 11 6 9 9 8 8 9 9 9 10 8 5 6 6 4 6 4 2 1 2 7
8 13 16 20 22 24 19 17 18 26 25 21 17 18 21 17 16 18 23 22 21 14 17 17 11 9 10 9 7 7 7 9 9 7 5 6 9 6 6 6 5 1 3 5
7 10 16 27 29 26 24 20 19 23 25 19 16 15 21 22 18 16 20 23 23 22 14 16 14 17 16 12 9 9 9 6 6 5 6 5 7 7 7 7 8 4 5 5
11 15 13 17 31 36 31 28 22 22 23 23 17 15 16 24 23 20 18 19 16 15 9 16 19 16 14 10 10 11 11 11 8 6 5 7 7 9 9 9 12 11 9 6
11 11 10 15 15 24 34 33 33 28 26 26 24 23 18 20 15 14 20 18 17 17 12 17 22 22 18 12 12 10 10 11 12 12 11 10 11 12 13 13 12 13 12 10
14 14 11 11 15 17 20 27 33 36 35 35 33 27 21 20 17 20 17 15 15 15 15 10 28 19 18 17 18 16 16 17 17 14 14 12 15 16 17 19 17 16 15 14
15 16 16 13 13 16 16 21 28 33 34 34 32 30 25 24 25 23 19 15 17 16 17 14 14 19 19 23 21 18 18 19 18 18 15 14 20 22 22 21 23 23 20 19
20 16 16 15 19 17 14 18 25 29 32 32 32 29 28 28 28 29 28 23 20 20 19 19 19 21 28 29 27 21 21 23 28 31 23 26 25 28 26 29 30 29 28 25
22 21 18 15 19 22 19 21 20 21 23 25 30 33 34 34 34 31 31 27 26 26 26 27 27 27 30 33 39 19 30 29 27 29 30 33 34 37 34 22 32 35 32 31
23 22 23 18 19 19 21 22 23 22 22 22 22 24 27 34 37 39 38 35 31 30 33 31 31 33 35 36 36 37 37 36 37 37 36 40 43 39 41 38 33 38 41 38
24 24 25 23 21 20 20 20 21 25 26 24 23 23 24 24 25 26 32 33 36 36 36 34 35 36 38 41 42 44 44 46 44 44 45 46 45 51 50 50 45 45 45 49
24 24 26 27 25 25 19 23 26 28 27 25 26 27 26 25 24 24 25 26 32 34 34 37 38 41 44 46 47 50 52 55 53 54 53 51 48 48 58 59 61 56 56 55
25 26 27 29 29 28 25 24 26 32 29 29 29 30 30 28 27 28 29 31 30 31 34 38 42 46 49 53 58 58 49 46 43 43 40 42 49 54 60 68 68 66 63 46
27 29 30 32 32 32 30 30 30 34 36 35 33 33 33 32 32 31 32 34 35 36 38 39 40 39 39 42 43 39 37 34 35 34 37 40 44 47 49 52 58 53 51 58
27 32 35 38 35 37 36 36 35 35 36 38 39 39 38 38 36 36 35 35 37 39 40 39 39 40 40 42 41 37 39 38 37 35 36 40 44 45 49 48 50 56 58 59
30 32 38 41 35 39 42 40 40 40 40 40 40 42 43 44 44 42 40 38 37 36 37 38 39 39 38 41 44 44 44 43 39 37 37 36 40 45 48 48 51 54 59 61
28 35 40 44 39 44 45 45 46 45 43 43 44 45 46 46 46 46 43 40 40 40 40 41 42 42 41 41 45 47 47 47 45 43 41 41 40 40 47 51 52 54 53 52
31 38 44 46 42 48 44 46 48 48 48 48 48 48 47 46 45 44 44 44 43 42 42 41 42 42 42 42 43 45 50 53 51 50 49 48 46 46 45 49 55 54 52 54
Wind_Direction
252 253 254 214 206 208 226 160 89 158 188 190 98 72 93 41 38 24 67 61 56 52 68 84 85 77 238 272 273 225 212 217 217 219 222 221 222 229 244 238 233 238 230 235
245 256 256 230 221 221 225 188 234 172 192 160 121 103 113 69 51 81 83 64 45 50 69 69 60 50 17 296 266 224 235 249 243 247 247 237 239 252 268 254 238 230 232 224
253 249 240 232 226 221 230 217 220 246 285 144 136 142 157 110 68 45 144 45 41 11 43 78 69 56 67 101 165 181 200 194 171 135 125 132 143 122 294 244 213 243 226 213
243 241 235 237 231 231 222 236 231 239 248 284 201 164 170 143 86 33 200 24 58 39 330 95 113 87 94 149 148 167 172 160 149 131 122 123 121 118 86 83 174 192 199 182
230 235 242 241 237 232 236 229 235 242 257 263 256 243 193 145 134 311 222 247 7 72 291 278 154 180 158 157 179 162 163 150 147 139 130 131 120 99 93 90 97 117 138 139
236 225 224 231 228 230 238 237 245 256 260 262 267 269 190 232 236 221 215 225 239 240 220 270 199 177 193 191 176 192 169 157 155 150 141 146 153 142 120 101 108 117 128 141
251 236 227 229 230 231 240 244 248 257 265 273 271 276 252 272 263 262 231 241 255 248 205 238 222 185 201 204 190 190 193 176 171 168 161 160 163 163 142 134 148 152 167 178
219 222 226 231 230 235 241 249 257 264 270 278 270 270 269 271 264 244 250 260 231 290 203 203 219 209 192 211 209 183 184 192 187 179 216 264 210 180 174 144 144 150 191 211
176 202 222 228 237 240 238 250 255 261 268 277 275 254 246 246 240 233 231 226 229 208 226 240 255 226 218 201 214 213 208 220 211 219 240 281 275 208 183 172 179 163 254 247
242 231 233 230 242 237 240 233 239 250 263 279 279 257 227 229 226 224 235 239 242 239 202 217 235 253 231 217 216 217 210 228 235 237 250 277 284 250 188 175 177 234 335 320
313 265 245 243 239 247 256 241 237 250 259 264 277 288 233 221 210 212 226 249 257 254 191 213 221 225 218 214 224 216 215 214 231 215 236 248 276 258 214 195 187 217 275 320
295 286 293 262 248 243 246 249 246 241 252 262 258 281 274 241 234 242 233 244 259 245 260 221 233 246 237 208 225 220 216 214 214 222 214 263 262 260 231 228 223 244 243 265
270 286 294 281 263 253 254 252 248 245 247 254 258 274 273 258 235 225 236 241 245 252 226 230 223 235 232 240 252 238 243 249 232 221 221 219 241 247 241 241 240 233 248 247
268 281 290 289 285 269 263 258 251 251 254 257 265 271 272 261 249 229 231 244 248 239 239 222 227 226 231 242 253 260 263 270 261 255 261 250 242 235 243 247 247 240 238 246
279 273 272 275 274 279 273 264 258 256 259 261 261 263 261 256 255 265 264 250 245 252 248 231 207 206 218 226 239 255 267 274 279 278 297 288 271 259 240 239 242 247 249 250
278 275 272 266 271 271 275 271 262 263 265 265 264 265 262 258 256 263 262 259 252 252 241 240 245 238 227 226 228 229 251 264 271 274 275 277 277 286 276 252 234 237 241 246
279 283 279 272 267 274 269 264 272 272 270 271 266 265 263 264 265 264 260 265 260 244 241 233 229 233 245 253 271 277 253 257 258 265 268 267 269 272 286 260 268 262 249 241
282 278 278 283 277 274 274 273 277 275 270 270 270 269 267 266 263 259 260 260 259 253 254 244 239 236 237 249 257 254 255 254 262 262 256 261 270 269 276 274 268 258 258 256
280 277 277 276 275 275 281 283 281 277 274 275 274 269 268 269 273 269 258 257 259 256 252 246 247 249 250 251 259 269 273 275 274 272 271 263 259 262 262 265 263 266 258 258
277 275 275 274 271 271 268 282 284 279 276 275 272 272 270 270 272 273 268 260 251 249 249 249 251 254 256 260 265 271 275 275 276 275 269 266 262 259 256 257 261 265 261 250
279 280 278 279 279 278 275 267 271 270 280 274 270 267 267 267 264 265 266 261 258 256 256 256 257 259 262 264 268 273 275 273 270 266 260 258 260 261 255 248 255 261 264 268
284 283 281 278 279 280 281 274 265 267 268 270 268 266 266 267 267 265 260 258 257 254 253 256 258 261 260 265 266 265 268 274 275 269 262 262 258 257 259 256 255 258 259 262
276 279 277 276 278 279 276 274 274 268 267 270 274 275 271 268 267 268 269 264 260 260 261 258 258 259 264 268 267 267 270 270 270 271 268 264 257 257 255 258 257 255 258 262
276 273 273 272 273 273 273 273 273 273 273 273 273 273 274 274 273 271 268 266 266 264 262 262 261 259 261 264 265 265 267 268 265 267 269 271 266 259 254 253 255 256 260 265
274 274 272 272 273 271 275 278 277 277 277 274 273 273 273 274 275 276 273 266 261 259 260 260 258 255 254 256 259 262 262 262 266 266 265 267 267 267 258 254 256 260 266 275
278 274 272 274 275 275 275 274 275 276 276 276 275 276 277 276 276 274 273 272 270 266 263 260 258 257 258 260 258 259 261 264 266 269 269 267 265 266 265 262 261 263 267 270
Height
5898 5899 5905 5908 5910 5911 5912 5911 5910 5910 5912 5910 5916 5913 5914 5913 5912 5910 5906 5905 5904 5903 5898 5898 5898 5898 5899 5900 5901 5901 5902 5902 5903 5903 5904 5904 5906 5907 5907 5909 5909 5910 5911 5912
5896 5898 5903 5905 5907 5908 5910 5911 5911 5910 5909 5911 5911 5912 5913 5914 5913 5912 5909 5906 5905 5903 5903 5899 5897 5897 5897 5899 5901 5902 5903 5903 5902 5902 5902 5904 5905 5905 5904 5904 5905 5906 5908 5909
5895 5898 5898 5900 5903 5906 5908 5909 5910 5911 5909 5908 5909 5910 5912 5914 5913 5912 5911 5909 5906 5904 5902 5900 5899 5899 5899 5900 5902 5903 5905 5906 5904 5903 5903 5903 5904 5904 5903 5900 5902 5904 5905 5907
5894 5894 5896 5896 5898 5903 5906 5908 5908 5908 5909 5910 5909 5911 5909 5910 5913 5913 5912 5910 5907 5905 5904 5901 5900 5901 5902 5902 5903 5905 5906 5908 5907 5905 5904 5904 5905 5905 5905 5902 5902 5902 5903 5905
5892 5892 5893 5894 5897 5899 5903 5904 5907 5907 5907 5907 5909 5909 5910 5910 5911 5912 5911 5910 5908 5906 5905 5904 5901 5902 5903 5903 5903 5905 5906 5907 5909 5908 5907 5906 5906 5905 5905 5904 5903 5902 5905 5905
5887 5889 5891 5892 5895 5897 5898 5901 5903 5903 5903 5903 5905 5905 5909 5908 5908 5909 5909 5908 5907 5905 5904 5903 5903 5902 5903 5904 5904 5905 5906 5907 5909 5909 5909 5908 5907 5906 5906 5905 5905 5906 5906 5907
5886 5887 5889 5890 5892 5894 5895 5896 5899 5900 5900 5900 5901 5901 5905 5904 5905 5906 5908 5907 5906 5904 5903 5903 5903 5903 5902 5903 5904 5906 5907 5907 5908 5909 5910 5909 5908 5907 5907 5906 5907 5907 5908 5909
5884 5886 5887 5887 5889 5891 5891 5892 5895 5895 5896 5896 5897 5897 5900 5900 5900 5902 5904 5906 5904 5903 5902 5901 5902 5902 5902 5902 5903 5904 5906 5907 5908 5909 5910 5909 5908 5907 5906 5907 5907 5907 5908 5909
5883 5884 5884 5884 5885 5887 5888 5888 5891 5890 5890 5891 5893 5892 5894 5895 5897 5899 5901 5901 5901 5901 5902 5901 5902 5901 5901 5901 5903 5904 5905 5907 5907 5909 5908 5908 5907 5906 5905 5905 5906 5907 5907 5908
5884 5884 5882 5882 5881 5882 5883 5885 5887 5886 5887 5888 5889 5887 5889 5891 5894 5897 5897 5897 5898 5897 5897 5898 5900 5899 5900 5901 5902 5903 5903 5904 5905 5906 5907 5907 5907 5906 5905 5905 5905 5907 5907 5905
5879 5879 5879 5877 5876 5877 5878 5881 5882 5884 5884 5884 5885 5885 5887 5888 5891 5892 5893 5894 5895 5896 5896 5896 5896 5894 5895 5898 5899 5900 5901 5901 5902 5902 5903 5904 5905 5905 5905 5904 5904 5906 5907 5905
5874 5872 5872 5871 5870 5872 5873 5875 5877 5878 5880 5881 5882 5883 5884 5885 5887 5889 5890 5891 5893 5894 5894 5895 5896 5897 5897 5897 5898 5898 5899 5899 5899 5900 5900 5901 5902 5904 5904 5905 5905 5904 5905 5905
5870 5869 5868 5867 5867 5867 5868 5870 5872 5873 5874 5875 5878 5880 5881 5882 5883 5885 5886 5887 5889 5891 5892 5893 5894 5895 5896 5896 5898 5898 5898 5898 5897 5896 5896 5896 5898 5901 5901 5901 5902 5902 5903 5903
5867 5866 5865 5864 5863 5863 5863 5864 5866 5867 5868 5869 5872 5874 5876 5878 5879 5881 5882 5884 5885 5886 5888 5888 5891 5893 5895 5895 5895 5896 5897 5895 5896 5896 5897 5897 5897 5896 5895 5896 5896 5897 5897 5897
5863 5862 5862 5861 5860 5859 5859 5859 5859 5859 5861 5863 5866 5867 5870 5872 5874 5875 5877 5879 5880 5881 5883 5885 5887 5890 5891 5891 5890 5892 5891 5889 5891 5893 5897 5895 5895 5893 5890 5889 5889 5891 5892 5893
5856 5857 5857 5857 5855 5855 5855 5854 5853 5853 5853 5855 5858 5859 5862 5865 5868 5869 5871 5873 5875 5876 5877 5879 5882 5883 5883 5883 5880 5885 5886 5887 5886 5886 5891 5889 5890 5891 5889 5887 5882 5881 5883 5886
5851 5851 5852 5853 5850 5850 5851 5848 5848 5848 5848 5850 5851 5853 5854 5856 5859 5862 5865 5866 5868 5868 5870 5872 5874 5875 5874 5872 5869 5872 5879 5878 5878 5878 5880 5881 5882 5882 5880 5881 5884 5881 5878 5873
5846 5846 5845 5846 5845 5845 5843 5843 5843 5843 5843 5845 5846 5846 5846 5846 5849 5852 5855 5858 5860 5859 5860 5862 5865 5867 5867 5865 5867 5870 5870 5871 5868 5870 5871 5869 5868 5868 5868 5871 5872 5872 5870 5869
5840 5840 5839 5839 5839 5840 5837 5837 5838 5837 5838 5839 5840 5840 5840 5840 5840 5842 5844 5846 5848 5851 5852 5852 5853 5854 5855 5855 5856 5857 5857 5857 5857 5858 5857 5855 5856 5857 5857 5854 5856 5859 5859 5857
5833 5833 5833 5832 5832 5832 5836 5832 5830 5828 5830 5833 5833 5832 5833 5834 5835 5835 5834 5835 5837 5838 5840 5841 5842 5842 5841 5841 5841 5842 5842 5842 5842 5843 5843 5842 5839 5839 5841 5844 5842 5844 5839 5840
5826 5825 5825 5824 5823 5825 5827 5827 5825 5821 5826 5823 5824 5825 5825 5826 5828 5828 5827 5827 5828 5828 5829 5829 5829 5829 5828 5827 5827 5828 5830 5829 5829 5830 5830 5828 5827 5826 5825 5825 5825 5826 5823 5794
5821 5819 5817 5815 5814 5815 5816 5816 5818 5815 5813 5814 5814 5815 5816 5817 5816 5817 5817 5816 5815 5816 5817 5817 5817 5817 5816 5816 5816 5818 5817 5818 5817 5817 5816 5817 5816 5815 5812 5811 5814 5813 5817 5812
5815 5812 5809 5806 5808 5805 5805 5804 5805 5805 5804 5803 5802 5803 5805 5805 5806 5806 5806 5806 5806 5805 5804 5805 5805 5806 5805 5805 5805 5805 5805 5807 5806 5805 5806 5805 5805 5804 5803 5806 5806 5803 5807 5809
5804 5802 5797 5795 5800 5794 5791 5793 5793 5793 5793 5793 5793 5792 5790 5790 5790 5792 5794 5794 5794 5794 5793 5793 5793 5794 5794 5792 5791 5792 5791 5792 5793 5793 5792 5793 5794 5794 5794 5795 5795 5797 5797 5797
5797 5792 5786 5782 5788 5782 5782 5782 5779 5779 5780 5780 5779 5778 5777 5776 5776 5775 5777 5779 5781 5781 5781 5780 5780 5781 5782 5781 5780 5780 5779 5779 5780 5781 5782 5782 5782 5783 5784 5783 5784 5782 5782 5784
5786 5780 5774 5772 5776 5770 5773 5770 5767 5765 5765 5764 5763 5762 5762 5762 5762 5761 5761 5760 5762 5764 5765 5766 5765 5766 5767 5768 5769 5768 5768 5768 5767 5768 5768 5770 5770 5770 5771 5771 5770 5774 5774 5770